COSMOS 2084

Last updated on Fri Jul 10 2026 00:02:13 GMT+0000 (Coordinated Universal Time)

1 20663U 90055A 26190.23639253 .00001201 00000+0 95316-4 0 9998 2 20663 62.7905 280.8289 0007369 312.2608 47.7867 15.06210349954628
UTC large
Height (km)
Speed (km/s)
/
Latitude / Longitude
Inclination (degrees)
Orbital Period (minutes)
Azimuth
Elevation
Range (km)
Doppler Factor

Next 0 passes for location: London (51.5072 / 0.1276)

No passes found over London.
COSMOS 2084